Regional Weather Roundup
Issued by NWS

Home | Current Version | Previous Version | Text Only | Print | Product List | Glossary On
Versions: 1 2 3 4 5 6 7 8 9 10 11 12 13 14 15 16 17 18 19 20 21 22 23 24 25 26 27 28
000
ASCA42 TJSJ 241610
RWRPR
PUERTO RICO/U.S. VIRGIN ISLANDS HOURLY WEATHER ROUNDUP
NATIONAL WEATHER SERVICE SAN JUAN PR
1200 PM AST TUE JAN 24 2017

PRZ001>002-007>008-010-241700-
PUERTO RICO

CITY           SKY/WX    TMP DP  RH WIND       PRES   REMARKS
SAN JUAN LMM   MOSUNNY   88  70  55 S12G20    29.96F HX  92
AGUADILLA      MOSUNNY   82  66  57 SW13G22   29.97F
$$

VIZ001>002-241700-
U.S. VIRGIN ISLANDS

CITY           SKY/WX    TMP DP  RH WIND       PRES   REMARKS
CHARLOTTE AMA  SUNNY     82  73  74 S9        29.99F
CHRISTIANSTED  MOSUNNY   82  73  74 S9        30.01F
$$

HOURLY WEATHER ROUNDUP FOR THE NEWS MEDIA

CITY           SKY/WX    TMP DP  RH WIND       PRES   REMARKS
ORLANDO        SUNNY     66  49  54 W14       29.91R
NEW YORK       LGT RAIN  39  36  89 N20G32    29.33F WCI  29
NEWARK         LGT RAIN  38  35  89 N18G28    29.37S WCI  28
CHICAGO        CLOUDY    35  31  85 VRB5      29.89R WCI  31
HARTFORD       LGT RAIN  46  43  89 N14G24    29.29F
BOSTON         LGT RAIN  41  41 100 N29G43    29.41F FOG
DALLAS         PTSUNNY   63  40  42 SE14      29.69R
PHILADELPHIA   CLOUDY    41  35  79 N17G26    29.42F
LOS ANGELES    PTSUNNY   43  39  86 E5        30.01R
WASHINGTON DC  PTSUNNY   44  34  67 NW23G32   29.55R



USA.gov is the U.S. government's official web portal to all federal, state and local government web resources and services.